EW9733 Weather Reports


Display with metric or nautical units.
time (UTC)temp
F
wind
direction
speed
MPH
gust
MPH
rain 1hr
in
rain 24hr
in
rain mn
in
humidity
%
barometer
mb
20210919163032 76 100 6.0 14.0 0.00 0.00 0.00 62 1020.4
20210919161533 76 53 4.0 10.0 0.00 0.00 0.00 62 1020.4
20210919160028 75 93 1.0 9.0 0.00 0.00 0.00 66 1020.4
20210919154517 75 36 2.0 10.0 0.00 0.00 0.00 70 1020.4
20210919153015 75 32 4.0 10.0 0.00 0.00 0.00 68 1020.3
20210919151502 74 80 2.0 12.0 0.00 0.00 0.00 70 1020.3
20210919150141 74 140 1.0 12.0 0.00 0.00 0.00 71 1020.3
20210919144729 74 84 3.0 9.0 0.00 0.00 0.00 71 1020.3
20210919143114 74 59 3.0 10.0 0.00 0.00 0.00 69 1020.3
20210919141620 74 92 1.0 9.0 0.00 0.00 0.00 71 1020.1
20210919140054 73 5 1.0 5.0 0.00 0.00 0.00 72 1020.0
20210919134609 73 58 2.0 12.0 0.00 0.00 0.00 73 1019.9
20210919133112 73 113 2.0 9.0 0.00 0.00 0.00 72 1019.7
20210919131617 73 81 5.0 11.0 0.00 0.00 0.00 73 1019.4
20210919130041 72 99 2.0 12.0 0.00 0.00 0.00 72 1019.2
20210919124541 72 63 3.0 12.0 0.00 0.00 0.00 77 1019.2
20210919123040 71 42 2.0 8.0 0.00 0.00 0.00 78 1019.0
20210919121534 70 65 2.0 8.0 0.00 0.00 0.00 78 1018.9
20210919120058 69 296 1.0 5.0 0.00 0.00 0.00 82 1018.9
20210919114745 68 263 1.0 6.0 0.00 0.00 0.00 85 1018.9
20210919113116 68 43 1.0 8.0 0.00 0.00 0.00 86 1018.7
20210919111638 68 55 1.0 8.0 0.00 0.00 0.00 86 1018.5
20210919110114 68 53 1.0 8.0 0.00 0.00 0.00 87 1018.4
20210919104634 68 55 1.0 6.0 0.00 0.00 0.00 88 1018.2
20210919103041 68 38 1.0 4.0 0.00 0.00 0.00 90 1018.0
20210919101728 68 62 2.0 6.0 0.00 0.00 0.00 91 1017.8
20210919100054 68 80 2.0 6.0 0.00 0.00 0.00 91 1017.7
20210919094616 69 149 1.0 6.0 0.00 0.00 0.00 92 1017.7
20210919093038 69 55 2.0 6.0 0.00 0.00 0.00 93 1017.6
20210919091543 69 75 2.0 5.0 0.00 0.00 0.00 93 1017.4
20210919090049 69 82 2.0 9.0 0.00 0.00 0.00 93 1017.3
20210919084613 69 37 0.0 2.0 0.00 0.00 0.00 92 1017.1
20210919083030 69 26 0.0 1.0 0.00 0.00 0.00 92 1016.9
20210919081533 69 26 0.0 0.0 0.00 0.00 0.00 92 1016.7
20210919080031 69 26 0.0 0.0 0.00 0.00 0.00 92 1016.6
20210919074530 69 26 0.0 1.0 0.00 0.00 0.00 92 1016.6
20210919073025 69 26 0.0 0.0 0.00 0.00 0.00 92 1016.6
20210919071619 69 26 0.0 0.0 0.00 0.00 0.00 92 1016.6
20210919070023 69 26 0.0 1.0 0.00 0.00 0.00 92 1016.7
20210919064539 69 27 0.0 1.0 0.00 0.00 0.00 92 1016.8
20210919063115 70 27 0.0 0.0 0.00 0.00 0.00 92 1016.9
20210919061522 70 27 0.0 3.0 0.00 0.00 0.00 92 1016.8
20210919060040 70 355 0.0 3.0 0.00 0.00 0.00 91 1016.8
20210919054526 70 275 0.0 0.0 0.00 0.00 0.00 91 1016.8
20210919053022 70 275 0.0 2.0 0.00 0.00 0.00 91 1016.6
20210919051535 70 277 0.0 0.0 0.00 0.00 0.00 91 1016.6
20210919050014 70 277 0.0 3.0 0.00 0.00 0.00 90 1016.7
20210919044533 70 289 0.0 0.0 0.00 0.00 0.00 90 1016.7
20210919043018 70 289 0.0 0.0 0.00 0.00 0.00 90 1016.6
20210919041510 70 289 0.0 2.0 0.00 0.00 0.00 90 1016.5
20210919040019 70 290 0.0 2.0 0.00 0.00 0.00 90 1016.5
20210919034523 71 291 0.0 2.0 0.00 0.00 0.00 90 1016.4
20210919033007 71 292 0.0 3.0 0.00 0.00 0.00 90 1016.4
20210919031508 71 295 0.0 0.0 0.00 0.00 0.00 90 1016.5
20210919030006 71 295 0.0 0.0 0.00 0.00 0.00 89 1016.4
20210919024505 71 295 0.0 3.0 0.00 0.00 0.00 89 1016.3
20210919023005 72 296 0.0 2.0 0.00 0.00 0.00 88 1016.2
20210919021504 72 296 1.0 3.0 0.00 0.00 0.00 88 1016.0
20210919020014 72 296 0.0 0.0 0.00 0.00 0.00 88 1015.9
20210919014515 72 296 0.0 0.0 0.00 0.00 0.00 88 1015.8
20210919013003 73 296 0.0 1.0 0.00 0.00 0.00 87 1015.8
20210919011502 73 282 0.0 3.0 0.00 0.00 0.00 87 1016.0
20210919010024 73 295 1.0 3.0 0.00 0.00 0.00 86 1015.8
20210919004507 73 276 0.0 2.0 0.00 0.00 0.00 86 1015.7
20210919003003 74 274 1.0 2.0 0.00 0.00 0.00 86 1015.5
20210919000117 74 310 0.0 0.0 0.00 0.00 0.00 84 1015.3
20210918234619 75 310 0.0 0.0 0.00 0.00 0.00 84 1015.2
20210918233158 76 311 0.0 0.0 0.00 0.00 0.00 82 1014.9
20210918231614 76 311 0.0 0.0 0.00 0.00 0.00 81 1015.0
20210918230209 77 310 0.0 2.0 0.00 0.00 0.00 81 1015.0
20210918224610 78 310 0.0 0.0 0.00 0.00 0.00 79 1014.8
20210918223241 78 310 0.0 2.0 0.00 0.00 0.00 79 1014.7
20210918221641 79 311 0.0 2.0 0.00 0.00 0.00 78 1014.7
20210918220135 80 334 0.0 3.0 0.00 0.00 0.00 77 1014.6
20210918214705 80 333 0.0 2.0 0.00 0.00 0.00 77 1014.6
20210918213209 81 336 0.0 2.0 0.00 0.00 0.00 74 1014.7
20210918211609 81 355 0.0 2.0 0.00 0.00 0.00 72 1014.7
20210918210111 81 283 0.0 3.0 0.00 0.00 0.00 73 1014.8
20210918204842 81 309 0.0 1.0 0.00 0.00 0.00 74 1014.8
20210918203106 82 283 0.0 2.0 0.00 0.00 0.00 73 1014.7
20210918201610 82 282 0.0 3.0 0.00 0.00 0.00 72 1014.7
20210918200057 82 313 0.0 4.0 0.00 0.00 0.00 73 1014.9
20210918194624 82 252 1.0 5.0 0.00 0.00 0.00 72 1015.1
20210918193104 82 285 1.0 6.0 0.00 0.00 0.00 73 1015.2
20210918191605 82 270 1.0 5.0 0.00 0.00 0.00 70 1015.4
20210918190109 84 73 1.0 3.0 0.00 0.00 0.00 69 1015.6
20210918184559 83 98 0.0 3.0 0.00 0.00 0.00 71 1015.8
20210918183040 83 94 0.0 5.0 0.00 0.00 0.00 72 1016.0
20210918181600 82 55 1.0 4.0 0.00 0.00 0.00 69 1016.1
20210918180047 83 15 1.0 5.0 0.00 0.00 0.00 70 1016.2
20210918174550 83 59 2.0 6.0 0.00 0.00 0.00 73 1016.3
20210918173053 82 75 1.0 8.0 0.00 0.00 0.00 72 1016.5
20210918171601 82 36 0.0 6.0 0.00 0.00 0.00 70 1016.7
20210918170029 82 67 1.0 10.0 0.00 0.00 0.00 72 1016.9